Location: *
(41.0833°N, 73.4167°W)
Time: 18:09:05
(UTC+00:00)

Cosmos 2123 Rocket - Pass Details

Date: 22 October 2019
Orbit: 960 x 993 km, 82.9° (Epoch: 21 November)

Event Time Altitude Azimuth Distance (km) Brightness Sun altitude
Rises 00:29:00 0° 184° (S) 3,688 7.0 -27.9°
Reaches altitude 10° 00:31:31 10° 184° (S) 2,740 6.3 -28.4°
Enters shadow 00:35:20 40° 183° (S) 1,414 4.7 -29.1°
Exits shadow 00:37:49 87° 93° (E) 991 3.8 -29.5°
Drops below altitude 10° 00:44:07 10° 8° (N) 2,738 6.4 -30.7°
Sets 00:46:38 0° 8° (N) 3,685 7.1 -31.2°
